Temp_Advection
nan nan nan nan nan nan nan nan nan nan nan nan nan nan nan nan nan nan nan nan nan nan nan nan nan nan nan nan nan nan nan nan nan nan nan nan nan nan nan nan nan nan nan nan nan nan nan nan nan nan nan nan
nan -0 -0 -0 -0 -0 -0 -0 0 0 0 0 0 0 0 0 0 0 0 -0 -0 0 0 0 -0 -0 0 0 0 0 -0 -0 -0 0 1 0 0 -0 0 0 0 0 0 0 0 -0 -0 0 -0 0 0 nan
nan -0 -0 -0 -0 -0 -0 -0 -0 -0 0 -0 0 -0 -0 0 -0 0 0 -0 0 0 0 0 0 0 0 -0 0 0 -0 -0 -0 -0 0 1 0 0 -0 0 0 0 0 1 1 -0 -0 -0 -0 0 0 nan
nan -0 -0 -0 -0 -0 -0 -0 -0 -0 -0 -0 -0 -0 0 -0 -0 -0 -0 -0 0 0 0 -0 -0 0 0 0 0 0 -0 -0 -0 -0 -0 0 1 0 -0 0 0 0 0 1 1 -0 -0 -0 -0 0 0 nan
nan -0 -0 -0 -0 -0 -0 -0 -0 -0 -0 -0 -0 -0 -0 -0 -0 -0 -0 -0 -0 0 0 -0 -0 -0 0 0 0 0 -0 0 -0 -0 -0 0 1 1 0 0 0 0 0 1 0 -0 -0 -0 -0 -0 0 nan
nan -0 -0 -0 -0 -0 -0 -0 -0 -0 -0 -0 -0 -0 -0 -0 -0 -0 -0 -0 -0 0 -0 -0 -0 -0 -0 0 0 0 0 0 -0 -0 -0 -0 0 1 1 0 0 0 0 0 0 0 -0 -0 -0 -0 0 nan
nan -0 -0 -0 -0 -0 -0 -0 -0 -0 -0 -0 0 -0 -0 -0 -0 -0 -0 -0 -0 -0 -0 -0 -0 -0 -0 -0 0 0 0 0 0 -0 -0 -0 -0 0 1 0 0 1 0 0 0 0 0 -0 -0 -0 -0 nan
nan -0 -0 -0 -0 -0 -0 -0 -0 -0 -0 -0 -0 -0 -0 -0 0 -0 -0 -0 -0 -0 -0 -0 -0 -0 -0 -0 -0 -0 0 0 0 0 -0 -0 -0 -0 0 1 1 1 0 0 0 1 0 -0 -0 -0 -0 nan
nan -0 -0 -0 -0 -0 -0 -0 -0 -0 -0 -1 -1 -0 -0 -0 -0 -0 -0 0 0 -0 -1 -1 -0 -0 -0 -0 -0 -0 -0 0 0 0 0 0 -0 -1 -0 0 1 1 1 0 0 0 0 -0 -0 -0 -0 nan
nan -1 -1 -1 -0 -0 -0 -0 -0 -0 -0 -0 -0 -1 -1 -1 -1 -1 -1 -0 0 0 0 -1 -1 -1 -0 -0 -0 -0 -0 -0 -0 0 0 0 0 -0 -1 -0 1 1 1 0 0 0 0 -0 -1 -0 -0 nan
nan -1 -1 -1 -1 -1 -1 -0 -0 -0 -0 -0 -1 -1 -1 -1 -1 -1 -1 -1 -1 -0 1 0 -0 -1 -1 -0 -0 -0 -1 -1 -1 -0 0 0 0 0 -0 -1 -0 1 1 0 0 1 0 -0 -1 -0 0 nan
nan -2 -2 -2 -2 -2 -1 -1 -1 -1 -1 -0 -1 -1 -1 -2 -2 -2 -2 -2 -2 -2 -1 -0 0 0 0 0 -0 -0 -1 -1 -1 -1 0 0 0 0 0 -0 -1 -0 1 -0 -0 1 1 0 -0 -0 0 nan
nan -2 -2 -3 -3 -3 -3 -3 -3 -2 -2 -2 -1 -1 -1 -1 -2 -2 -2 -2 -2 -2 -2 -1 -1 -1 -1 0 0 0 -0 -1 -1 -1 -0 0 0 0 0 -0 -1 -1 -0 -0 -0 1 1 0 0 0 0 nan
nan -3 -2 -3 -3 -4 -4 -4 -4 -4 -4 -4 -3 -2 -2 -1 -2 -2 -2 -3 -3 -3 -2 -2 -1 -2 -2 -2 -1 -0 0 -0 -1 -1 -0 -0 -0 0 0 0 -0 -1 -1 -1 -0 1 1 0 0 1 0 nan
nan -3 -3 -2 -2 -2 -3 -3 -4 -4 -4 -4 -4 -3 -3 -2 -2 -2 -2 -2 -3 -3 -3 -3 -2 -1 -1 -1 -1 -1 -1 -1 -1 -1 -0 0 -0 -0 0 0 0 -0 -1 -1 -1 0 1 1 1 1 1 nan
nan -2 -2 -2 -2 -2 -2 -2 -2 -3 -3 -3 -3 -3 -3 -3 -2 -2 -2 -2 -2 -2 -3 -3 -3 -2 -2 -1 -0 -0 -1 -1 -1 -1 -1 0 1 0 -0 0 0 0 -0 -1 -1 -1 0 1 1 1 1 nan
nan -1 -1 -1 -1 -1 -1 -2 -2 -2 -2 -2 -2 -2 -2 -2 -2 -2 -2 -2 -2 -2 -2 -3 -3 -3 -3 -3 -1 -0 0 -1 -1 -1 -1 -1 1 1 -0 0 1 1 -0 -1 -1 -1 -1 0 1 2 1 nan
nan -1 -1 -1 -1 -1 -1 -1 -1 -2 -2 -2 -1 -1 -1 -2 -2 -2 -2 -2 -1 -1 -1 -2 -3 -3 -3 -3 -3 -2 -1 -1 -1 -1 -1 -1 -0 1 0 -0 0 1 0 -0 -0 -0 -1 -1 0 1 1 nan
nan -1 -1 -0 -1 -1 -1 -1 -1 -1 -1 -2 -1 -1 -1 -1 -1 -1 -1 -1 -1 -1 -0 -0 -1 -2 -2 -3 -3 -2 -1 -1 -1 -1 -1 -1 -2 0 1 0 0 0 0 0 -0 -1 -1 -1 -0 0 1 nan
nan -1 -1 -0 -0 -0 -0 -0 -1 -1 -1 -1 -1 -1 -1 -1 -1 -1 -1 -0 -0 -1 -0 -0 -0 -1 -1 -1 -2 -2 -1 -1 -2 -2 -1 -1 -2 -1 0 0 0 0 0 0 0 -0 -1 -0 0 -0 0 nan
nan -1 -0 -0 -0 -0 -0 -0 -0 -0 -1 -1 -1 -1 -1 -1 -1 -1 -0 -0 -0 -0 -0 -0 -0 -0 -0 -0 -1 -2 -1 -1 -1 -2 -2 -1 -1 -2 -1 0 0 -0 -0 0 1 0 -1 -0 0 -1 -1 nan
nan -1 -1 -0 -0 -1 -0 -0 -0 -0 -1 -1 -1 -1 -1 -1 -1 -1 -0 -0 -0 -0 -0 -0 -1 -0 -0 -0 -0 -1 -1 -1 -1 -1 -2 -1 -1 -1 -1 -1 -0 -0 -1 -0 1 1 -0 -0 -0 -1 -1 nan
nan -1 -1 -0 -0 -1 -1 -1 -1 -1 -1 -1 -1 -1 -1 -1 -1 -1 -1 -0 -0 -0 -0 -0 -0 -1 -1 -0 0 -0 -1 -1 -1 -1 -1 -1 -1 -1 -1 -1 -1 -0 -0 -1 0 1 0 -0 -1 -1 -0 nan
nan -1 -1 -1 -0 -1 -1 -1 -1 -1 -1 -1 -1 -1 -1 -1 -1 -1 -1 -0 -0 -0 -0 -0 -0 -0 -1 -0 0 0 -0 -0 -0 -1 -1 -1 -1 -1 -1 -1 -1 -0 0 -0 -1 0 1 0 -1 -1 -0 nan
nan -1 -1 -1 -1 -1 -1 -1 -1 -2 -1 -1 -1 -1 -1 -1 -1 -1 -1 -1 -1 -1 -0 -0 -0 -0 -0 -0 -0 -0 -0 -0 -0 -0 -1 -1 -1 -1 -1 -1 -1 -0 -0 -0 -1 -0 1 0 -1 -0 -0 nan
nan -1 -1 -1 -1 -0 -1 -1 -1 -1 -1 -1 -1 -1 -1 -1 -1 -1 -1 -0 -1 -1 -0 -0 -0 -0 -0 -0 -0 -0 -0 0 0 -0 -0 -0 -1 -1 -1 -1 -1 -1 -1 -1 -1 -0 0 -0 -1 -1 -1 nan
nan -2 -1 -1 -1 -1 -1 -1 -1 -0 -0 -1 -1 -1 -1 -1 -1 -1 -0 -0 -1 -1 -0 -0 -1 -0 -0 -0 -0 -0 -0 0 0 -0 0 0 -0 -0 -1 -1 -1 -1 -1 -1 -0 -0 -0 -1 -1 -0 -1 nan
nan -2 -2 -2 -1 -1 -1 -1 -1 -0 -0 -0 -0 -1 -1 -2 -1 -1 -0 -0 -1 -1 -1 -1 -1 -1 -0 -0 -0 -0 -0 -0 -0 -0 0 0 0 -0 -0 -1 -1 -1 -1 -1 -0 -0 -0 -1 -0 -1 -2 nan
nan -1 -1 -2 -2 -2 -2 -3 -2 -1 -0 -0 -0 -1 -1 -2 -1 -1 -0 -0 -1 -1 -1 -1 -1 -1 -0 0 -0 -0 -1 -0 -0 -0 -0 0 0 0 -0 -0 -1 -1 -1 -1 -0 -0 -1 -0 0 -1 -1 nan
nan 0 -0 -1 -1 -2 -2 -3 -3 -2 -1 -1 -1 -1 -1 -2 -1 -0 -0 -0 -1 -1 -1 -1 -1 -1 -0 0 0 -0 -1 -0 -0 -0 -0 -0 0 0 0 -0 -0 -1 -1 -1 -0 -0 -0 -0 -0 -0 -0 nan
nan nan nan nan nan nan nan nan nan nan nan nan nan nan nan nan nan nan nan nan nan nan nan nan nan nan nan nan nan nan nan nan nan nan nan nan nan nan nan nan nan nan nan nan nan nan nan nan nan nan nan nan
Wind_Speed
3 3 4 5 3 2 4 7 9 11 9 11 11 12 13 13 13 12 12 11 11 11 13 16 16 16 15 14 14 15 16 18 20 19 18 18 17 17 17 17 18 18 20 20 15 14 15 13 14 11 10 15
5 6 5 6 5 5 5 4 6 8 7 9 10 10 11 13 14 13 13 13 12 11 11 13 14 16 15 15 15 15 15 17 18 19 20 19 19 18 17 17 17 17 20 22 17 15 15 14 13 10 7 12
7 7 7 7 7 7 7 7 6 4 4 5 7 9 10 11 12 13 14 14 14 13 12 12 12 14 14 15 15 13 14 16 16 16 20 21 20 19 18 19 18 18 20 22 18 16 16 14 13 11 8 10
8 7 7 7 7 8 8 9 10 8 6 4 4 6 8 10 12 12 13 14 15 15 15 14 14 14 14 15 15 15 15 15 15 14 17 22 22 19 19 19 17 19 20 23 20 16 15 14 13 12 10 9
11 10 8 9 8 8 9 10 11 12 11 8 6 6 5 8 11 12 13 14 15 16 17 17 17 16 16 17 16 17 17 17 16 14 14 20 24 22 21 19 18 20 21 23 22 17 15 14 13 12 11 10
13 13 11 11 11 10 10 11 12 13 13 12 12 12 10 8 9 10 12 14 15 16 16 17 19 19 18 19 19 18 18 19 18 16 15 17 22 25 25 21 20 21 20 22 24 21 16 15 14 13 12 11
15 14 14 13 13 13 12 12 12 12 13 13 13 14 15 14 13 12 12 12 13 14 15 16 18 20 20 20 21 20 21 21 20 19 18 17 19 23 27 26 22 21 20 22 27 25 19 17 16 15 14 12
17 16 16 15 15 16 16 15 14 14 14 15 15 15 15 16 16 16 15 15 14 14 14 14 15 17 20 21 21 22 23 24 22 22 22 20 19 21 26 29 25 22 21 23 29 28 22 20 19 17 17 15
20 20 18 17 17 18 18 18 18 18 18 18 19 18 18 18 18 18 18 17 17 18 18 17 16 15 17 19 21 23 23 24 25 25 24 22 22 22 24 29 29 26 23 25 29 30 25 23 22 20 20 19
25 24 22 22 21 21 20 20 20 21 21 21 21 22 22 22 22 22 22 22 21 20 21 21 22 21 18 18 18 21 23 24 26 26 25 24 24 24 25 28 31 30 28 27 29 31 29 26 24 23 23 22
28 28 27 27 26 25 24 23 23 23 23 25 25 26 26 26 26 26 28 29 28 27 25 23 24 26 25 23 21 21 22 24 26 27 27 27 25 26 27 28 30 33 32 30 30 30 30 29 27 26 26 25
31 32 32 32 32 30 30 29 28 28 28 29 29 30 30 31 31 32 33 33 34 35 33 31 28 27 28 29 28 25 25 25 26 28 28 29 29 28 29 30 31 33 34 34 33 32 30 30 30 29 28 27
34 35 36 35 36 35 35 35 34 33 33 33 33 34 34 35 35 36 37 37 38 39 39 39 37 34 32 31 31 31 29 28 27 28 29 29 31 32 31 32 32 33 35 36 37 37 34 31 31 31 30 29
37 37 38 38 38 37 37 37 37 37 37 37 37 38 38 37 38 38 39 40 41 41 41 42 41 39 37 34 33 33 33 31 29 29 30 30 31 34 35 34 34 35 36 36 37 39 38 34 32 32 31 31
38 38 38 38 38 37 37 37 36 37 37 38 38 38 39 38 38 39 39 40 41 41 41 42 42 41 40 37 34 33 33 32 32 31 30 30 30 33 36 37 36 36 38 38 37 39 41 39 35 33 32 32
37 37 37 37 37 36 36 35 35 35 35 35 35 36 36 36 36 37 38 39 39 40 40 40 40 41 41 41 39 35 32 31 31 31 31 32 31 30 33 37 38 37 39 40 39 38 41 42 39 36 34 33
36 35 34 34 34 35 35 34 33 33 32 32 31 31 31 32 33 34 35 35 35 36 37 38 38 39 39 40 41 39 36 32 31 31 31 32 33 31 31 33 37 38 39 40 42 41 42 43 42 40 37 36
35 34 32 31 31 32 33 33 32 31 30 29 28 28 28 29 29 30 31 31 31 31 31 33 34 35 35 36 38 38 37 34 32 31 31 32 33 34 32 32 33 36 40 41 42 43 43 44 44 43 41 39
30 30 28 27 28 29 30 31 31 30 29 29 28 27 27 27 27 27 27 27 27 28 27 28 29 29 30 31 33 34 34 34 33 32 31 31 33 35 34 34 33 33 36 40 43 44 44 46 46 45 44 42
25 26 24 22 24 26 28 29 29 29 29 28 28 27 27 26 26 26 26 25 24 25 26 26 26 26 25 26 28 29 30 31 31 31 31 30 31 34 34 35 36 35 33 34 38 42 44 47 47 47 46 45
25 24 22 21 23 25 27 28 28 29 29 29 29 29 28 26 26 25 25 24 23 23 24 25 25 24 23 23 25 26 27 28 29 29 30 30 28 31 34 34 35 37 37 34 32 35 42 47 48 48 47 46
25 24 23 21 23 26 28 29 29 29 30 30 31 31 30 28 26 24 24 24 24 24 24 24 25 25 23 23 24 25 26 27 28 28 28 29 28 28 31 33 33 34 36 37 34 32 35 43 48 48 48 47
25 24 23 21 22 25 29 31 31 32 33 33 33 33 32 31 28 26 25 26 27 27 27 26 26 26 25 24 24 24 25 26 27 28 27 28 28 27 28 31 32 32 32 33 35 34 33 37 43 48 50 49
27 25 23 23 22 24 29 32 34 35 36 36 35 35 34 32 31 29 28 27 28 30 30 29 28 27 26 25 25 24 25 26 26 27 28 27 27 27 28 29 30 31 30 30 31 33 33 34 38 46 50 51
30 27 27 27 25 25 30 32 32 32 34 35 35 34 32 30 29 28 27 26 27 29 30 30 29 28 27 26 27 27 27 27 25 25 26 27 26 27 27 28 28 28 28 29 29 29 31 33 37 42 48 51
33 31 30 31 30 29 32 32 31 30 29 31 32 31 30 29 27 26 25 24 25 27 28 28 28 28 28 27 28 29 28 27 25 24 24 24 24 25 26 27 27 26 26 27 27 25 25 30 35 40 45 49
36 34 32 33 33 32 33 32 31 30 27 27 29 30 29 28 26 25 24 24 25 26 26 27 27 27 27 26 27 29 29 27 25 24 23 21 22 23 23 25 26 25 24 25 24 21 20 24 30 34 41 48
37 33 31 31 32 32 33 33 31 29 27 25 25 28 29 28 26 25 24 23 25 26 26 26 27 27 26 24 25 27 28 28 26 24 23 22 20 21 22 23 24 24 24 24 22 18 16 20 23 25 34 44
38 31 29 31 34 34 34 34 33 31 28 25 25 28 29 28 26 24 22 23 25 26 26 26 26 27 26 23 22 24 27 27 26 25 24 23 22 21 22 22 22 22 24 24 22 18 16 16 16 19 27 33
40 33 32 37 40 39 37 36 35 33 32 30 30 31 31 29 26 23 23 24 26 26 26 27 26 25 25 24 22 23 26 27 26 26 25 25 24 23 22 21 22 23 23 24 24 23 22 21 17 17 18 19
40 36 37 42 43 39 36 35 35 34 34 34 34 35 35 33 28 24 24 26 27 27 27 27 27 26 26 25 23 23 24 25 25 26 26 25 25 24 23 22 24 24 22 23 25 26 26 26 25 23 20 17
Wind_Direction
34 356 325 323 309 278 240 231 227 225 229 234 239 244 242 244 242 243 244 245 249 248 260 261 247 238 230 230 240 245 247 249 247 245 252 256 260 259 246 238 233 231 248 259 249 259 273 277 301 310 251 215
44 30 8 351 341 332 310 288 257 234 232 240 243 250 249 247 246 246 245 245 249 251 261 263 258 249 236 234 234 240 247 243 243 245 248 252 259 262 252 241 233 236 251 258 250 251 265 268 287 310 265 222
54 35 19 5 356 352 337 334 326 281 257 252 247 251 255 255 251 249 248 247 249 252 258 259 261 256 246 247 241 237 246 246 241 245 249 248 253 260 256 247 236 238 247 250 244 243 258 267 273 293 286 237
65 53 29 16 7 6 0 353 351 340 333 322 270 255 258 265 262 258 257 253 252 253 257 259 258 257 252 252 252 246 245 249 247 245 249 246 247 254 257 254 246 239 240 242 234 232 254 260 266 280 280 253
61 61 49 42 37 27 18 11 9 4 359 353 336 313 290 276 272 269 268 265 261 257 258 260 259 257 254 249 250 252 248 244 245 246 245 244 246 252 256 258 257 240 231 240 234 227 247 253 260 273 268 259
47 50 47 43 40 36 30 23 19 16 14 10 6 357 345 327 309 292 279 276 274 271 267 264 262 260 258 252 248 251 252 245 240 244 246 245 247 251 254 256 258 249 234 238 239 233 243 255 256 261 261 256
32 34 34 31 29 29 26 23 19 15 15 12 12 8 1 355 347 332 311 295 288 285 281 274 269 265 263 259 255 253 253 250 240 239 247 252 250 250 252 252 254 257 246 236 240 239 239 252 253 253 258 254
19 18 17 17 17 16 13 12 12 9 7 5 5 4 0 358 356 351 341 326 311 298 290 286 281 274 269 265 264 262 257 255 247 240 243 249 253 253 251 250 250 253 250 241 240 240 240 249 250 249 254 255
6 4 2 3 4 4 3 2 1 0 359 358 357 356 354 351 349 349 347 341 333 320 308 304 299 290 282 276 272 270 264 259 254 245 240 241 246 253 254 252 252 249 249 250 247 244 246 251 249 250 251 253
356 354 353 353 352 351 351 351 352 351 350 349 348 347 346 344 341 339 338 337 336 332 324 319 315 308 300 293 287 281 275 266 260 250 240 239 240 246 253 253 253 251 249 252 253 250 249 250 249 252 253 251
350 349 348 346 345 343 342 342 342 341 341 342 340 339 338 337 336 333 333 331 329 329 326 322 320 317 311 307 302 296 289 279 270 259 245 241 239 240 248 253 253 252 251 250 253 254 251 247 248 253 255 253
348 347 346 343 341 339 338 337 335 335 334 335 334 334 334 332 332 330 329 328 326 325 323 321 317 315 313 311 308 304 300 293 282 272 259 248 243 241 244 250 253 252 252 250 250 253 253 248 246 248 252 254
348 347 345 344 342 340 338 336 334 332 331 330 329 329 330 329 329 328 326 325 324 322 320 320 318 314 311 308 307 304 302 298 291 284 275 261 249 243 244 247 249 251 252 251 249 250 252 250 248 246 246 251
349 346 345 344 343 341 340 338 335 334 331 329 328 327 327 327 326 325 324 322 321 319 317 316 316 315 312 309 305 302 300 298 294 288 281 274 260 249 246 246 246 247 249 251 252 251 250 249 248 248 246 249
350 347 345 343 342 341 339 338 336 335 333 331 329 327 326 325 324 323 321 320 318 317 315 313 312 311 310 308 305 300 297 294 292 288 282 277 271 259 249 245 245 245 246 248 252 253 252 250 248 248 247 248
349 346 344 341 340 338 337 336 335 334 332 330 328 327 325 323 322 320 318 317 315 314 312 310 308 307 305 304 302 299 294 290 287 285 280 275 272 268 257 248 243 242 243 244 248 252 253 251 249 248 246 246
346 344 341 338 336 334 333 332 331 331 329 327 325 323 321 319 317 316 315 313 310 309 307 306 304 302 301 299 297 295 291 287 282 279 277 273 267 266 265 257 246 241 241 241 243 247 251 252 251 250 247 245
342 341 337 334 331 330 329 328 327 327 325 323 321 318 315 313 312 310 310 308 304 302 301 301 299 298 296 294 292 289 287 284 280 276 273 270 265 261 262 263 255 245 241 241 242 243 245 250 251 251 250 248
337 335 332 326 323 323 323 323 322 321 321 320 317 314 309 306 305 305 305 303 298 294 291 292 293 292 291 289 287 284 283 281 278 275 272 268 264 260 258 260 261 254 245 242 243 243 242 245 248 250 251 250
332 328 324 316 312 315 317 318 317 317 317 316 314 312 308 303 299 299 300 298 293 289 285 283 284 287 288 288 286 283 281 281 278 275 272 268 262 259 256 255 257 258 254 247 244 244 242 242 244 247 249 250
329 323 318 312 309 309 312 313 312 312 312 310 311 310 308 305 298 293 292 291 288 285 284 281 279 280 284 289 291 289 285 283 282 279 275 271 264 258 256 253 251 252 255 254 249 246 244 243 243 244 247 250
325 321 314 310 310 309 309 309 308 308 308 307 307 307 307 305 301 295 288 285 283 282 283 283 281 278 280 286 290 292 290 288 286 284 280 276 270 261 256 255 251 249 252 254 252 249 246 245 244 243 244 247
321 321 313 307 310 311 308 308 308 307 307 307 306 305 305 304 303 300 293 285 283 281 281 282 283 282 280 280 283 286 289 291 290 288 284 281 277 269 259 256 254 252 252 254 252 250 248 248 247 244 243 244
326 324 318 311 311 315 312 310 310 309 309 308 306 305 304 303 301 300 296 289 284 282 280 280 282 282 280 275 275 280 284 288 290 289 286 282 280 275 266 258 255 254 256 258 255 251 248 249 248 246 244 243
330 326 323 318 315 317 313 307 310 313 310 306 304 303 301 300 299 297 295 292 287 282 278 277 277 277 276 272 271 275 280 283 284 285 286 285 283 280 274 265 258 256 258 259 259 254 251 249 248 246 243 242
328 323 320 316 314 314 310 305 304 306 306 305 301 298 295 295 295 295 293 291 286 279 274 271 270 269 270 269 268 270 273 275 276 278 280 282 283 283 281 273 264 259 259 260 259 259 258 254 249 246 243 241
329 322 315 312 311 311 310 307 302 297 296 300 300 298 295 292 292 294 292 289 284 277 272 269 265 264 263 263 264 266 267 268 269 271 270 274 281 284 284 279 271 263 259 261 261 260 260 255 249 246 243 241
332 325 318 315 311 309 307 304 300 294 289 293 300 300 296 293 296 298 293 286 284 280 277 273 268 265 263 262 264 265 266 266 265 265 264 264 270 279 283 282 278 269 261 259 258 256 253 250 244 242 244 243
334 328 323 321 317 312 307 303 300 297 293 295 300 299 297 297 300 300 292 285 283 283 281 278 274 269 264 262 264 265 264 265 264 263 262 261 261 268 275 280 283 277 265 258 254 250 245 241 236 238 245 247
332 327 324 325 322 316 310 304 300 299 299 298 297 295 295 296 298 297 290 285 283 283 281 277 274 271 264 258 258 260 260 261 261 260 258 258 258 260 265 272 279 278 271 263 257 252 244 239 239 242 249 249
329 325 323 325 324 317 311 304 299 299 298 296 293 292 292 291 291 291 288 285 284 282 277 273 271 268 262 258 258 259 259 259 259 258 255 253 254 256 258 263 269 274 275 270 262 256 251 247 245 246 251 251
Height
1511 1511 1510 1509 1508 1508 1509 1509 1508 1509 1509 1510 1511 1511 1513 1513 1514 1514 1514 1515 1515 1516 1517 1518 1519 1519 1520 1522 1523 1524 1525 1526 1526 1527 1527 1526 1527 1527 1528 1529 1528 1528 1526 1527 1529 1531 1531 1532 1532 1532 1533 1535
1510 1510 1510 1509 1508 1507 1508 1508 1508 1508 1508 1509 1510 1510 1511 1512 1512 1513 1513 1514 1514 1515 1515 1516 1517 1518 1519 1520 1521 1523 1523 1524 1525 1526 1526 1526 1526 1526 1527 1528 1527 1527 1526 1525 1527 1530 1530 1531 1531 1532 1532 1534
1510 1510 1509 1509 1508 1508 1508 1508 1508 1509 1508 1508 1509 1509 1510 1510 1511 1511 1512 1512 1513 1514 1514 1515 1515 1516 1517 1518 1519 1520 1522 1523 1523 1525 1525 1525 1525 1525 1526 1526 1527 1527 1525 1524 1525 1528 1529 1530 1530 1532 1533 1533
1509 1509 1509 1509 1509 1508 1509 1509 1508 1508 1508 1507 1508 1508 1509 1509 1510 1510 1510 1511 1511 1512 1513 1514 1514 1515 1516 1516 1517 1518 1520 1521 1522 1523 1524 1524 1524 1524 1524 1525 1525 1526 1525 1523 1523 1526 1528 1529 1529 1530 1532 1533
1509 1509 1510 1509 1509 1509 1509 1509 1508 1508 1507 1507 1507 1507 1508 1508 1509 1509 1509 1509 1510 1510 1511 1512 1513 1513 1514 1515 1516 1516 1518 1519 1520 1522 1522 1523 1523 1523 1523 1523 1524 1525 1524 1523 1522 1524 1526 1528 1529 1530 1531 1533
1509 1509 1509 1509 1509 1509 1509 1509 1508 1507 1507 1507 1507 1507 1507 1507 1508 1508 1508 1508 1509 1509 1509 1510 1511 1511 1512 1513 1514 1515 1516 1517 1518 1519 1521 1522 1522 1522 1521 1521 1522 1523 1523 1522 1521 1522 1525 1527 1529 1530 1530 1532
1509 1509 1509 1509 1508 1508 1508 1508 1507 1507 1507 1507 1507 1507 1507 1507 1506 1507 1507 1508 1508 1508 1508 1509 1509 1510 1511 1511 1512 1513 1513 1514 1515 1516 1518 1520 1520 1520 1519 1519 1520 1521 1522 1521 1520 1521 1523 1525 1527 1529 1530 1531
1509 1508 1508 1508 1508 1507 1507 1507 1506 1506 1506 1505 1505 1506 1505 1505 1505 1506 1506 1507 1507 1507 1507 1507 1507 1508 1509 1509 1510 1510 1511 1512 1513 1514 1515 1518 1519 1518 1517 1517 1518 1519 1520 1520 1518 1519 1522 1523 1525 1527 1529 1530
1508 1508 1508 1507 1507 1507 1506 1506 1505 1505 1505 1504 1504 1503 1503 1503 1503 1504 1505 1506 1506 1506 1506 1505 1506 1506 1507 1507 1508 1508 1509 1510 1511 1511 1512 1514 1515 1516 1516 1515 1516 1517 1518 1518 1517 1518 1520 1522 1523 1525 1527 1529
1508 1508 1507 1506 1506 1506 1505 1505 1505 1504 1503 1502 1502 1502 1501 1501 1501 1501 1502 1503 1504 1505 1505 1504 1504 1504 1505 1505 1506 1506 1507 1508 1508 1509 1510 1511 1511 1513 1514 1514 1514 1514 1515 1515 1516 1516 1518 1520 1521 1523 1524 1526
1508 1507 1506 1506 1505 1505 1504 1504 1503 1503 1502 1501 1501 1500 1500 1499 1499 1500 1500 1500 1501 1502 1503 1504 1504 1504 1503 1504 1504 1505 1505 1505 1506 1506 1507 1508 1508 1510 1511 1512 1512 1512 1512 1513 1514 1514 1516 1517 1519 1521 1522 1524
1507 1506 1506 1505 1504 1504 1503 1503 1502 1502 1501 1500 1500 1499 1499 1498 1498 1498 1498 1498 1498 1498 1499 1501 1503 1503 1503 1503 1503 1503 1503 1503 1504 1504 1504 1505 1506 1507 1508 1509 1510 1510 1510 1511 1511 1512 1513 1515 1516 1518 1520 1521
1506 1505 1505 1504 1503 1502 1502 1501 1501 1500 1500 1499 1499 1498 1498 1497 1497 1496 1496 1496 1496 1496 1496 1496 1498 1500 1501 1502 1502 1502 1502 1502 1502 1502 1502 1503 1504 1504 1505 1506 1507 1508 1508 1508 1509 1509 1510 1512 1513 1515 1517 1518
1505 1504 1503 1502 1502 1501 1501 1500 1499 1499 1498 1497 1497 1496 1496 1496 1495 1495 1494 1494 1494 1494 1493 1493 1493 1494 1496 1498 1499 1500 1500 1500 1500 1500 1500 1500 1500 1501 1502 1503 1504 1505 1506 1506 1507 1506 1507 1509 1511 1512 1514 1516
1504 1503 1502 1501 1500 1500 1499 1499 1498 1497 1496 1496 1495 1494 1494 1493 1493 1493 1492 1492 1492 1491 1491 1491 1491 1491 1491 1492 1494 1495 1497 1498 1498 1498 1498 1498 1497 1498 1498 1499 1500 1502 1503 1503 1504 1504 1504 1506 1508 1509 1511 1513
1502 1501 1500 1499 1499 1498 1497 1497 1497 1496 1495 1494 1493 1492 1491 1491 1490 1490 1490 1490 1489 1489 1489 1488 1488 1488 1488 1488 1488 1489 1491 1493 1495 1496 1496 1495 1495 1495 1495 1495 1496 1498 1499 1500 1501 1502 1502 1503 1504 1506 1508 1510
1500 1500 1499 1498 1497 1496 1495 1495 1495 1494 1494 1493 1492 1491 1489 1489 1488 1487 1487 1487 1487 1486 1486 1485 1485 1485 1485 1484 1484 1485 1486 1487 1489 1491 1492 1492 1492 1492 1492 1492 1492 1493 1495 1496 1497 1499 1499 1500 1501 1503 1504 1506
1498 1498 1497 1496 1495 1494 1493 1493 1492 1492 1492 1491 1490 1489 1487 1486 1485 1484 1484 1484 1483 1483 1483 1482 1482 1482 1481 1481 1480 1480 1481 1482 1483 1485 1486 1488 1488 1488 1488 1489 1489 1489 1490 1492 1493 1495 1496 1497 1498 1500 1501 1502
1498 1496 1495 1494 1493 1492 1491 1490 1490 1489 1488 1488 1487 1486 1485 1484 1483 1481 1480 1480 1480 1480 1480 1479 1479 1479 1478 1477 1476 1476 1477 1477 1478 1479 1480 1482 1483 1484 1484 1485 1486 1486 1486 1487 1489 1490 1492 1493 1495 1496 1497 1499
1496 1495 1493 1492 1492 1490 1489 1488 1487 1486 1485 1484 1484 1483 1482 1481 1480 1478 1477 1477 1477 1477 1476 1476 1476 1476 1475 1474 1473 1473 1473 1474 1474 1475 1475 1477 1478 1479 1480 1480 1481 1482 1483 1483 1484 1486 1488 1489 1490 1492 1493 1495
1492 1492 1491 1490 1489 1488 1487 1486 1484 1483 1482 1481 1480 1479 1479 1477 1476 1474 1473 1473 1474 1474 1474 1473 1473 1473 1472 1471 1470 1469 1470 1471 1471 1471 1471 1472 1474 1475 1475 1476 1477 1478 1479 1479 1480 1481 1483 1485 1486 1488 1489 1491
1489 1488 1487 1486 1486 1485 1484 1483 1482 1480 1479 1477 1476 1476 1475 1474 1472 1470 1470 1471 1471 1471 1471 1471 1470 1470 1469 1468 1467 1467 1467 1468 1468 1469 1468 1468 1469 1471 1471 1472 1473 1474 1475 1475 1476 1476 1478 1480 1482 1483 1486 1487
1485 1484 1483 1482 1482 1481 1481 1479 1478 1476 1475 1473 1472 1471 1471 1469 1468 1467 1467 1468 1468 1468 1468 1467 1467 1466 1466 1465 1464 1464 1464 1465 1466 1466 1466 1465 1465 1466 1467 1468 1469 1469 1470 1471 1472 1472 1473 1475 1477 1479 1481 1483
1481 1480 1479 1478 1477 1477 1476 1475 1473 1471 1470 1469 1468 1467 1466 1465 1464 1463 1464 1464 1465 1464 1464 1463 1463 1462 1462 1462 1462 1461 1462 1463 1463 1463 1463 1463 1462 1462 1463 1464 1465 1466 1466 1467 1467 1468 1469 1470 1472 1474 1475 1477
1479 1478 1476 1475 1474 1473 1472 1470 1468 1467 1467 1466 1464 1464 1463 1462 1461 1461 1461 1461 1461 1460 1460 1459 1459 1458 1459 1459 1459 1459 1459 1459 1460 1460 1460 1460 1460 1459 1459 1460 1461 1463 1463 1463 1463 1464 1465 1466 1467 1468 1470 1471
1479 1478 1477 1474 1473 1471 1469 1467 1466 1464 1464 1463 1462 1461 1460 1459 1459 1458 1458 1458 1457 1457 1456 1455 1455 1455 1456 1456 1456 1456 1456 1456 1456 1457 1457 1457 1456 1456 1456 1456 1457 1459 1460 1459 1460 1461 1461 1462 1462 1463 1464 1466
1477 1476 1475 1473 1471 1469 1467 1465 1464 1462 1461 1461 1459 1458 1457 1457 1456 1455 1455 1454 1454 1454 1453 1452 1452 1452 1452 1453 1453 1452 1452 1452 1453 1453 1454 1454 1454 1454 1453 1453 1453 1455 1456 1456 1457 1458 1458 1458 1458 1458 1458 1459
1474 1472 1471 1470 1468 1466 1464 1462 1460 1459 1458 1458 1456 1455 1454 1453 1453 1452 1451 1451 1451 1450 1450 1449 1449 1448 1449 1449 1449 1448 1448 1448 1449 1449 1450 1451 1451 1451 1450 1450 1450 1451 1453 1453 1454 1455 1455 1455 1455 1454 1454 1454
1471 1469 1467 1465 1463 1461 1459 1457 1456 1455 1454 1454 1453 1452 1450 1450 1450 1449 1448 1448 1447 1447 1446 1446 1445 1445 1445 1445 1445 1444 1444 1444 1445 1446 1447 1447 1448 1448 1447 1447 1447 1448 1449 1450 1451 1452 1452 1452 1452 1451 1451 1452
1468 1466 1464 1462 1460 1457 1455 1453 1452 1451 1450 1449 1449 1447 1446 1446 1446 1445 1445 1445 1444 1444 1443 1442 1442 1442 1441 1441 1440 1440 1440 1441 1441 1442 1443 1444 1444 1444 1445 1445 1444 1444 1446 1447 1448 1448 1449 1448 1448 1449 1450 1450
1466 1464 1462 1460 1457 1455 1453 1450 1449 1448 1447 1445 1444 1443 1442 1441 1441 1441 1441 1440 1440 1440 1439 1438 1438 1438 1438 1437 1437 1437 1437 1437 1437 1438 1439 1439 1440 1440 1441 1441 1441 1441 1443 1443 1444 1445 1445 1445 1445 1446 1447 1447